Regional Weather Roundup
Issued by NWS

Home | Current Version | Previous Version | Graphics & Text | Print | Product List | Glossary On
Versions: 1 2 3 4 5 6 7 8 9 10 11 12 13 14 15 16 17 18 19 20 21 22 23 24 25 26 27 28 29 30 31 32 33 34 35 36 37 38 39 40 41 42 43 44 45 46 47 48 49 50
725
ASUS45 KCYS 091910
RWRWY

WYOMING REGIONAL WEATHER ROUNDUP
NATIONAL WEATHER SERVICE CHEYENNE WY
1200 PM MST TUE FEB 09 2016

NOTE:  "FAIR" INDICATES FEW OR NO CLOUDS BELOW 12,000 FEET
WITH NO SIGNIFICANT WEATHER AND/OR OBSTRUCTIONS TO VISIBILITY.

WYZ001-092000-
YELLOWSTONE NATIONAL PARK

CITY           SKY/WX    TMP DP  RH WIND       PRES   REMARKS
LK YELLOWSTONE   N/A     22  17  81 CALM      30.54F
W YELLOWSTONE  NOT AVBL

$$
WYZ002>013-054>058-071-098>099-092000-
NORTHERN WYOMING

CITY           SKY/WX    TMP DP  RH WIND       PRES   REMARKS
JACKSON        CLOUDY    18  23 100 CALM      30.57F
CODY           FAIR      50  27  40 NE8       30.32F
GREYBULL       FAIR      37  24  59 S6        30.36F WCI  32
WORLAND        FAIR      37  27  67 CALM      30.36F
SHERIDAN       SUNNY     57  25  28 N14       30.24F
BUFFALO        FAIR      51  30  44 N16G26    30.27F
GILLETTE       CLOUDY    48  31  51 NW15      30.26F
HULETT         CLOUDY    43  30  61 SW7       30.24F
NEWCASTLE      FAIR      45  28  53 NW18G26   30.24F

$$
WYZ014>020-022>026-101>103-092000-
CENTRAL WYOMING

CITY           SKY/WX    TMP DP  RH WIND       PRES   REMARKS
BIG PINEY      FAIR      41  25  53 CALM      30.45F
PINEDALE       FAIR      41  25  52 W17       30.43F
DUBOIS         FAIR      52   9  17 NW18G28   30.39F
LANDER         FAIR      33  18  53 CALM      30.38S
RIVERTON       FAIR      32  21  64 CALM      30.39F
CASPER         FAIR      36  23  59 SW21G31   30.34F WCI  25
DOUGLAS        PTSUNNY   44  27  51 NW17G26     N/A

$$
WYZ021-027>030-104>119-092000-
SOUTHERN WYOMING

CITY           SKY/WX    TMP DP  RH WIND       PRES   REMARKS
EVANSTON       FAIR      31  21  66 SW7       30.52F WCI  24
KEMMERER       FAIR      32  25  74 SW9       30.50F WCI  24
FORT BRIDGER   CLEAR     41  28  60 W18       30.53F
ROCK SPRINGS   FAIR      36  26  67 W20       30.46F WCI  25
DIXON          FAIR      29  19  67 CALM      30.53F
RAWLINS        FAIR      36  24  62 SW22G28   30.43F WCI  25
SARATOGA       FAIR      32  21  64 E5        30.45F WCI  27
LARAMIE        FAIR      34  22  61 NE7       30.36F WCI  28
CHEYENNE       FAIR      46  23  40 NW17G30   30.30F
TORRINGTON     FAIR      49  27  42 NW14      30.26F
PINE BLUFFS    FAIR      45  28  53 NW26      30.28F

$$




USA.gov is the U.S. government's official web portal to all federal, state and local government web resources and services.